Hourly Data Report for April 19, 2021

CLYDE RIVER A
NUNAVUT
Current Station Operator: NAVCAN

70°29'09.000" N
68°31'01.000" W
26.50 m
2400804
71090
YCY

Download Data

Hourly Data (April 2021)
Hourly Data Report for April 19, 2021
TIME
LST
Temp Definition
°C
Dew Point Definition
°C
Rel Hum Definition
%
Precip. Amount Definition
mm

Wind Dir Definition
10's deg

Wind Spd Definition
km/h
Visibility Definition
km
Stn Press Definition
kPa
Hmdx Definition


Wind Chill Definition


Weather Definition


00:00 -15.8 -17.4 88 0.0 31 21 11.3 101.67   -25 Snow
01:00 -15.7 -17.3 88 0.0 31 22 9.7 101.65   -25 Snow
02:00 -15.5 -17.1 88 0.0 31 24 6.4 101.66   -26 Snow
03:00 -15.5 -17.1 88 0.0 32 22 6.4 101.66   -25 Snow
04:00 -15.8 -17.4 88 0.0 31 24 6.4 101.65   -26 Snow
05:00 -15.4 -17.0 88 0.0 31 26 6.4 101.65   -26 Snow
06:00 -15.6 -17.3 87 0.0 31 28 8.1 101.64   -26 Snow
07:00 -14.7 -16.6 86 0.0 31 30 9.7 101.62   -26 Fog
08:00 -14.4 -16.3 86 0.0 32 34 2.8 101.61   -26 Snow
09:00 -14.2 -15.9 87 0.0 31 39 2.0 101.58   -26 Snow
10:00 -14.0 -15.7 87 0.0 31 35 2.0 101.60   -25 Snow
11:00 -13.8 -15.8 85 0.0 31 35 3.6 101.56   -25 Snow
12:00 -13.6 -15.6 85 0.0 32 35 6.4 101.53   -25 Snow
13:00 -13.4 -15.6 84 0.0 31 35 8.1 101.49   -25 Snow
14:00 -13.2 -15.4 84 0.0 31 34 11.3 101.49   -24 LegendNANA
15:00 -13.3 -15.5 84 0.0 32 28 16.1 101.48   -24 LegendNANA
16:00 -13.8 -15.8 85 0.0 32 26 16.1 101.47   -24 LegendNANA
17:00 -14.4 -16.5 84 0.0 31 28 16.1 101.46   -25 LegendNANA
18:00 -15.3 -17.1 86 0.0 31 22 16.1 101.46   -25 Snow
19:00 -16.7 -18.5 86 0.0 31 22 16.1 101.42   -27 Snow
20:00 -17.5 -19.5 85 0.0 30 22 16.1 101.41   -28 LegendNANA
21:00 -16.0 -17.7 87 0.0 30 24 16.1 101.40   -26 LegendNANA
22:00 -16.3 -17.9 88 0.0 31 26 16.1 101.36   -27 LegendNANA
23:00 -16.1 -17.8 87 0.0 30 28 16.1 101.34   -27 LegendNANA

Notes on Data Quality.

Legend

  • E = Estimated
  • M = Missing
  • NA = Not Available*
  • [empty] = Indicates an unobserved value
Date modified: